Flag for US Virgin Islands Weather past 2 weeks in Christiansted, US Virgin Islands

Now
88 °F

Passing clouds.


Feels Like: 92 °F
Forecast: 78 / 81 °F
Wind: 15 mph from Southeast

Location: Christiansted / Henry E. Rohlsen Airport - Saint Croix

Current Time: May 25, 2015 at 12:37:56 PM

Latest Report: May 25, 2015 at 11:53 AM


Visibility: 10 mi

Pressure: 30.06 "Hg

Humidity: 54%

Dew point: 69 °F

Location of ChristianstedLocation

Historic Weather in Christiansted — Graph

°F

Christiansted temperature yesterday

Maximum temperature yesterday: 89 °F (at 10:53 AM)
Minimum temperature yesterday: 78 °F (at 1:53 AM)
Average temperature yesterday: 82 °F

Past Weeks' High & Low Weather Summary

 TemperatureHumidityPressure
High89 °F (May 22, 12:53 PM)97% (May 20, 4:53 AM)30.14 "Hg (May 20, 4:53 AM)
Low73 °F (May 18, 5:53 AM)54% (May 12, 1:53 PM)29.95 "Hg (May 20, 4:53 PM)
Average81 °F73%30.05 "Hg
* Reported May 10 10:53 AM — May 25 10:53 AM, Christiansted, Weather by CustomWeather, © 2015

Note: Actual official high and low records may vary slightly from our data, if they occured in-between our weather recording intervals... More about our weather records

Advertising

Christiansted weather history for previous 24 hours

 ConditionsComfort  
Time TempWeatherWind HumidityBarometerVisibility
10:53 AM
Mon, May 25
87 °FPassing clouds.16 mph57%30.07 "Hg10 mi
9:53 AM86 °FPassing clouds.14 mph61%30.08 "Hg10 mi
8:53 AM86 °FPassing clouds.16 mph59%30.07 "Hg10 mi
7:53 AM82 °FPassing clouds.17 mph70%30.06 "Hg10 mi
6:53 AM81 °FPassing clouds.13 mph69%30.04 "Hg10 mi
5:53 AM78 °FOvercast.7 mph76%30.04 "Hg10 mi
4:53 AM78 °FOvercast.7 mph76%30.03 "Hg10 mi
3:53 AM79 °FMostly cloudy.6 mph74%30.02 "Hg10 mi
2:53 AM78 °FOvercast.7 mph76%30.02 "Hg10 mi
1:53 AM78 °FOvercast.7 mph76%30.03 "Hg10 mi
12:53 AM79 °FOvercast.8 mph74%30.04 "Hg10 mi
11:53 PM
Sun, May 24
79 °FOvercast.9 mph74%30.06 "Hg10 mi
11:21 PM80 °FOvercast.10 mph74%30.08 "Hg10 mi
10:53 PM80 °FOvercast.8 mph74%30.08 "Hg10 mi
9:53 PM80 °FPassing clouds.12 mph74%30.08 "Hg10 mi
8:53 PM80 °FPassing clouds.10 mph74%30.06 "Hg10 mi
7:53 PM80 °FPassing clouds.8 mph74%30.05 "Hg10 mi
6:53 PM81 °FPassing clouds.13 mph72%30.03 "Hg10 mi
5:53 PM82 °FScattered clouds.17 mph67%30.02 "Hg10 mi
4:53 PM86 °FScattered clouds.17 mph61%30.02 "Hg10 mi
3:53 PM86 °FScattered clouds.17 mph61%30.02 "Hg10 mi
2:53 PM87 °FScattered clouds.20 mph59%30.03 "Hg10 mi
1:53 PM88 °FBroken clouds.15 mph55%30.04 "Hg10 mi
12:53 PM88 °FBroken clouds.18 mph57%30.06 "Hg10 mi
Weather by CustomWeather, © 2015

See weather overviewHow to use our weather pages